Back to catalog

STARLINK-11447

AliveCommunicationsVLEO
NORAD 62418·PAYLOAD·🇺🇸 United States

Launched Dec 23, 2024 from Cape Canaveral Space Force Station

Loading…

Next Passes (next 24 hours)

TLE

FreshSource: CelesTrak SupGP

Epoch: Sep 14, 2026, 13:56 UTC

1 62418C 24249K   26257.58104167  .00070372  00000+0  54696-3 0  2574
2 62418  43.0003 108.7145 0001624 261.1270  54.1924 15.70786689    14

Track STARLINK-11447 in real time with AllMySat

Download on the App Store